TimeCDT,TemperatureF,Dew PointF,Humidity,Sea Level PressureIn,VisibilityMPH,Wind Direction,Wind SpeedMPH,Gust SpeedMPH,PrecipitationIn,Events,Conditions,WindDirDegrees,DateUTC
12:04 AM,53.6,51.8,94,30.02,1.5,SW,3.5,-,N/A,,Clear,220,2013-05-08 05:04:00
12:15 AM,53.6,51.8,94,30.02,3.0,Calm,Calm,-,N/A,,Clear,0,2013-05-08 05:15:00
12:53 AM,55.0,54.0,96,30.01,7.0,Calm,Calm,-,N/A,,Clear,0,2013-05-08 05:53:00
1:53 AM,54.0,52.0,93,29.99,7.0,Calm,Calm,-,N/A,,Clear,0,2013-05-08 06:53:00
2:27 AM,53.6,51.8,94,30.00,1.8,Calm,Calm,-,N/A,,Mostly Cloudy,0,2013-05-08 07:27:00
2:37 AM,53.6,53.6,100,30.01,3.0,Calm,Calm,-,N/A,,Mostly Cloudy,0,2013-05-08 07:37:00
2:53 AM,54.0,52.0,93,29.99,9.0,Calm,Calm,-,N/A,,Scattered Clouds,0,2013-05-08 07:53:00
3:53 AM,53.1,51.1,93,30.01,10.0,Calm,Calm,-,N/A,,Partly Cloudy,0,2013-05-08 08:53:00
4:53 AM,53.1,52.0,96,30.01,6.0,SE,3.5,-,N/A,,Clear,130,2013-05-08 09:53:00
5:53 AM,53.1,51.1,93,30.03,7.0,ESE,3.5,-,N/A,,Mostly Cloudy,110,2013-05-08 10:53:00
6:53 AM,54.0,53.1,97,30.06,7.0,Calm,Calm,-,N/A,,Mostly Cloudy,0,2013-05-08 11:53:00
7:53 AM,59.0,55.9,90,30.07,8.0,SSW,3.5,-,N/A,,Scattered Clouds,210,2013-05-08 12:53:00
8:53 AM,62.1,57.0,84,30.08,10.0,Calm,Calm,-,N/A,,Scattered Clouds,0,2013-05-08 13:53:00
9:53 AM,68.0,59.0,73,30.08,10.0,NW,3.5,-,N/A,,Partly Cloudy,320,2013-05-08 14:53:00
10:53 AM,73.0,61.0,66,30.08,10.0,WNW,3.5,-,N/A,,Partly Cloudy,300,2013-05-08 15:53:00
11:53 AM,73.9,60.1,62,30.08,10.0,WNW,3.5,-,N/A,,Scattered Clouds,300,2013-05-08 16:53:00
12:53 PM,73.9,60.1,62,30.06,10.0,WSW,5.8,-,N/A,,Mostly Cloudy,250,2013-05-08 17:53:00
1:53 PM,75.0,57.9,55,30.06,10.0,West,5.8,-,N/A,,Mostly Cloudy,280,2013-05-08 18:53:00
2:53 PM,78.1,59.0,52,30.04,10.0,West,6.9,-,N/A,,Scattered Clouds,280,2013-05-08 19:53:00
3:53 PM,77.0,57.9,52,30.03,10.0,WNW,6.9,-,N/A,,Scattered Clouds,290,2013-05-08 20:53:00
4:53 PM,78.1,59.0,52,30.02,10.0,West,8.1,-,N/A,,Scattered Clouds,280,2013-05-08 21:53:00
5:53 PM,75.0,57.9,55,30.02,10.0,WNW,4.6,-,N/A,,Scattered Clouds,300,2013-05-08 22:53:00
6:53 PM,73.9,59.0,59,30.02,10.0,Calm,Calm,-,N/A,,Partly Cloudy,0,2013-05-08 23:53:00
7:53 PM,71.1,57.9,63,30.03,10.0,Calm,Calm,-,N/A,,Partly Cloudy,0,2013-05-09 00:53:00
8:53 PM,66.0,60.1,81,30.05,10.0,Calm,Calm,-,N/A,,Partly Cloudy,0,2013-05-09 01:53:00
9:53 PM,64.9,61.0,87,30.06,10.0,Calm,Calm,-,N/A,,Scattered Clouds,0,2013-05-09 02:53:00
10:53 PM,61.0,57.9,90,30.06,10.0,Calm,Calm,-,N/A,,Partly Cloudy,0,2013-05-09 03:53:00
11:53 PM,63.0,59.0,87,30.05,10.0,Calm,Calm,-,N/A,,Partly Cloudy,0,2013-05-09 04:53:00